Monistrol de Calders





Hora UTC 07:00
Temperatura -1.4 ºC
Humitat 93.0 %
Pressió 1002.9 hPa
Pluja 0.0 mm
Velocitat vent 0.0 km/h
Direcció vent SE

Dades diàries 2019-11-15



Hora UTC (hivern +1h; estiu +2h)
Temperatura (ºC) Humitat (%) Pressió (hPa) Velocitat vent (km/h) Precipitació (mm)
Hora UTC Aire Humitat Pressió Vel. Dir. Vel. Max Dir. Intent. màx 5 min.
00:05 -0.6 92.0 1001.2 1.6 SSE 1.6 0.0
00:10 -0.6 93.0 1001.3 3.2 ESE 6.4 0.0
00:15 -0.6 93.0 1001.3 1.6 ESE 6.4 0.0
00:20 -0.6 93.0 1001.3 0.0 ESE 3.2 0.0
00:25 -0.6 93.0 1001.3 0.0 ESE 3.2 0.0
00:30 -0.6 93.0 1001.3 1.6 ESE 3.2 0.0
00:35 -0.6 93.0 1001.5 1.6 SE 6.4 0.0
00:40 -0.6 93.0 1001.4 0.0 SSE 6.4 0.0
00:45 -0.5 93.0 1001.5 0.0 SSE 6.4 0.0
00:50 -0.6 93.0 1001.5 0.0 SSE 1.6 0.0
00:55 -0.6 93.0 1001.5 0.0 SSE 1.6 0.0
01:00 -0.6 93.0 1001.5 0.0 SSE 0.0 0.0
01:05 -0.6 93.0 1001.5 0.0 SSE 0.0 0.0
01:10 -0.6 93.0 1001.5 0.0 SSE 0.0 0.0
01:15 -0.7 93.0 1001.5 0.0 SSE 0.0 0.0
01:20 -0.7 93.0 1001.5 1.6 SSE 1.6 0.0
01:25 -0.8 93.0 1001.6 0.0 SSE 1.6 0.0
01:30 -0.8 93.0 1001.6 0.0 SSE 0.0 0.0
01:35 -0.7 93.0 1001.7 0.0 SSE 0.0 0.0
01:40 -0.8 93.0 1001.7 0.0 SSE 3.2 0.0
01:45 -0.8 93.0 1001.8 1.6 SSE 3.2 0.0
01:50 -0.9 93.0 1001.8 0.0 SSE 3.2 0.0
01:55 -0.9 93.0 1001.8 1.6 SSE 3.2 0.0
02:00 -0.9 93.0 1001.7 0.0 SSE 3.2 0.0
02:05 -0.9 93.0 1001.6 0.0 SSE 3.2 0.0
02:10 -0.8 93.0 1001.5 0.0 SSE 1.6 0.0
02:15 -0.9 93.0 1001.5 0.0 SSE 0.0 0.0
02:20 -0.9 93.0 1001.6 0.0 SSE 0.0 0.0
02:25 -1.0 93.0 1001.6 1.6 SSE 1.6 0.0
02:30 -1.0 93.0 1001.6 0.0 SSE 1.6 0.0
02:35 -1.1 93.0 1001.5 0.0 SSE 1.6 0.0
02:40 -1.1 93.0 1001.5 1.6 SSE 1.6 0.0
02:45 -1.1 93.0 1001.5 0.0 SSE 3.2 0.0
02:50 -1.1 93.0 1001.5 0.0 SSE 0.0 0.0
02:55 -1.1 93.0 1001.6 0.0 SSE 1.6 0.0
03:00 -1.1 93.0 1001.6 3.2 SSE 6.4 0.0
03:05 -1.1 93.0 1001.6 1.6 SE 9.7 0.0
03:10 -0.9 93.0 1001.6 3.2 SE 9.7 0.0
03:15 -0.9 93.0 1001.6 6.4 S 8.0 0.0
03:20 -0.8 93.0 1001.6 0.0 ESE 6.4 0.0
03:25 -0.8 93.0 1001.7 0.0 ESE 1.6 0.0
03:30 -0.8 93.0 1001.7 0.0 ESE 0.0 0.0
03:35 -0.8 93.0 1001.8 0.0 ESE 0.0 0.0
03:40 -0.8 93.0 1001.8 0.0 ESE 0.0 0.0
03:45 -0.8 93.0 1001.8 0.0 ESE 0.0 0.0
03:50 -0.8 93.0 1001.8 0.0 ESE 0.0 0.0
03:55 -0.8 93.0 1001.9 0.0 ESE 0.0 0.0
04:00 -0.9 93.0 1001.8 0.0 ESE 0.0 0.0
04:05 -0.9 93.0 1001.8 0.0 ESE 0.0 0.0
04:10 -0.9 93.0 1001.7 0.0 ESE 1.6 0.0
04:15 -0.9 93.0 1001.7 0.0 ESE 1.6 0.0
04:20 -0.9 93.0 1001.7 0.0 ESE 1.6 0.0
04:25 -1.0 93.0 1001.8 3.2 SE 4.8 0.0
04:30 -0.9 93.0 1001.8 0.0 SE 4.8 0.0
04:35 -0.9 93.0 1001.8 0.0 SE 3.2 0.0
04:40 -1.0 93.0 1001.7 0.0 SE 3.2 0.0
04:45 -1.0 93.0 1001.7 0.0 SE 1.6 0.0
04:50 -1.1 93.0 1001.8 0.0 SE 1.6 0.0
04:55 -1.1 93.0 1001.9 0.0 SE 1.6 0.0
05:00 -1.1 93.0 1001.9 0.0 SE 1.6 0.0
05:05 -1.0 93.0 1001.8 1.6 SE 1.6 0.0
05:10 -0.9 93.0 1001.8 0.0 SE 1.6 0.0
05:15 -1.0 93.0 1001.7 0.0 SE 0.0 0.0
05:20 -1.0 93.0 1001.8 0.0 SE 0.0 0.0
05:25 -1.0 93.0 1001.9 0.0 SE 0.0 0.0
05:30 -1.1 93.0 1001.9 0.0 SE 0.0 0.0
05:35 -1.1 93.0 1001.9 1.6 SE 1.6 0.0
05:40 -1.1 93.0 1001.9 0.0 SE 3.2 0.0
05:45 -1.1 93.0 1001.9 0.0 SE 3.2 0.0
05:50 -1.1 93.0 1001.9 0.0 SE 1.6 0.0
05:55 -1.1 93.0 1002.0 0.0 SE 0.0 0.0
06:00 -1.2 93.0 1002.1 0.0 SE 0.0 0.0
06:05 -1.3 93.0 1002.2 0.0 SE 0.0 0.0
06:10 -1.3 93.0 1002.3 0.0 SE 1.6 0.0
06:15 -1.3 93.0 1002.3 0.0 SE 1.6 0.0
06:20 -1.3 93.0 1002.3 0.0 SE 0.0 0.0
06:25 -1.3 93.0 1002.4 0.0 SE 0.0 0.0
06:30 -1.3 93.0 1002.4 0.0 SE 0.0 0.0
06:35 -1.4 93.0 1002.4 0.0 SE 1.6 0.0
06:40 -1.4 93.0 1002.4 0.0 SE 1.6 0.0
06:45 -1.4 93.0 1002.5 0.0 SE 0.0 0.0
06:50 -1.5 93.0 1002.6 4.8 SE 4.8 0.0
06:55 -1.6 93.0 1002.8 1.6 SE 4.8 0.0
07:00 -1.4 93.0 1002.9 0.0 SE 3.2 0.0
Màxima -0.1 93.0 1002.9 6.4 S 9.7 0.0
Mínima -1.6 92.0 1001.2
Total 0.0